Regional Weather Roundup
Issued by NWS Little Rock, AR

Home | Current Version | Previous Version | Graphics & Text | Print | Product List | Glossary On
Versions: 1 2 3 4 5 6 7 8 9 10 11 12 13 14 15 16 17 18 19 20 21 22 23 24 25 26 27 28 29 30 31 32 33 34 35 36 37 38 39 40 41 42 43 44 45 46 47 48 49 50
000
ASUS44 KLZK 030505
RWRLZK

WEATHER ROUNDUP FOR ARKANSAS
NATIONAL WEATHER SERVICE LITTLE ROCK AR
1200 AM CDT FRI JUL 03 2015

NOTE: "FAIR" INDICATES FEW OR NO CLOUDS BELOW 12,000 FEET WITH NO
SIGNIFICANT WEATHER AND/OR OBSTRUCTIONS TO VISIBILITY.

ARZ001-003-010-029-030600-
NORTHWEST ARKANSAS

CITY           SKY/WX    TMP DP  RH WIND       PRES   REMARKS
FAYETTEVILLE   CLOUDY    69  68  96 CALM      29.97R
FORT SMITH     LGT RAIN  77  73  87 W9        29.94S
HARRISON       MOCLDY    71  68  90 W5        29.95S
BENTONVILLE    CLOUDY   N/A N/A N/A SW5       29.96S
ROGERS         CLOUDY    69  66  90 SW7       29.97R
SILOAM SPGS    CLOUDY    70  63  78 CALM        N/A
HIGHFILL       CLOUDY    69  68  96 S5        29.96R
$$

ARZ004-005-016-030600-
NORTH CENTRAL ARKANSAS

CITY           SKY/WX    TMP DP  RH WIND       PRES   REMARKS
BATESVILLE     CLOUDY    72  70  94 CALM      29.92S
FLIPPIN        CLOUDY    73  66  78 CALM      29.92R
MTN HOME       CLOUDY    71  69  93 CALM      29.93R
$$

ARZ040-041-030600-
WEST CENTRAL ARKANSAS

CITY           SKY/WX    TMP DP  RH WIND       PRES   REMARKS
MENA           CLOUDY    82  72  69 W7        29.97S HX  87
MOUNT IDA      CLOUDY    81  69  67 VRB3      29.93F
$$

ARZ009-017-025-026-028-030600-
NORTHEAST ARKANSAS

CITY           SKY/WX    TMP DP  RH WIND       PRES   REMARKS
JONESBORO      CLOUDY    70  69  97 S8        29.88F
NEWPORT        HVY RAIN  72  71  96 S5        29.91F
WALNUT RIDGE   CLOUDY    72  66  83 SW6       29.90R
BLYTHEVILLE    RAIN      72  67  84 SW12G24   29.90S
$$

ARZ022-023-033-042-044-030600-
CENTRAL ARKANSAS

CITY           SKY/WX    TMP DP  RH WIND       PRES   REMARKS
LITTLE ROCK    CLOUDY    81  69  67 SW8       29.93R THUNDER
N LITTLE ROCK  CLOUDY    81  73  74 SW5       29.93R HX  86
JACKSONVILLE   DRIZZLE   82  72  69 W9        29.92R HX  87
SEARCY         CLOUDY    77  72  84 CALM      29.93S
HOT SPRINGS    CLOUDY    80  71  74 CALM      29.95S
RUSSELLVILLE   RAIN      73  71  93 CALM      29.93F FOG
$$

ARZ036-030600-
EAST ARKANSAS

CITY           SKY/WX    TMP DP  RH WIND       PRES   REMARKS
WEST MEMPHIS   CLOUDY    72  70  93 N6        29.91F
$$

ARZ050-053-066-070-073-030600-
SOUTHWEST ARKANSAS

CITY           SKY/WX    TMP DP  RH WIND       PRES   REMARKS
ARKADELPHIA    FAIR      78  76  94 CALM      29.95S
CAMDEN         CLOUDY    79  72  78 CALM      29.96S
TEXARKANA      CLOUDY    79  73  82 S6        29.96S
EL DORADO      CLOUDY    78  73  84 S5        29.98R
DE QUEEN       CLOUDY    76  73  91 CALM      29.93S
$$

ARZ056-057-069-030600-
SOUTHEAST ARKANSAS

CITY           SKY/WX    TMP DP  RH WIND       PRES   REMARKS
PINE BLUFF     CLOUDY    81  72  74 SW8       29.95R HX  85
STUTTGART      CLOUDY    81  72  74 SW12      29.92S
MONTICELLO     CLOUDY    80  75  84 SW5       29.97R HX  85

$$





USA.gov is the U.S. government's official web portal to all federal, state and local government web resources and services.